User: anonymous   Login
Location: Blue Mountain Vista Observatory
(40.6992°N, 75.9422°W)
Time: 06:52:44
(UTC-04:00)
Language:

CZ-4C R/B - Orbit

View from above orbital plane
View from above orbital plane
View from above satellite
View from above satellite

Ground track
Ground track

The orbit data is extracted from the following two-line orbital elements,

1 36416U 10009D   17204.42314690 -.00000102 +00000-0 -34444-5 0  9992
2 36416 063.4376 166.9598 0390676 356.2291 003.5822 13.69517823369175
Epoch (UTC): 23 July 2017 10:09:19
Eccentricity: 0.0390676
inclination: 63.4376°
perigee height: 713 km
apogee height: 1289 km
right ascension of ascending node: 166.9598°
argument of perigee: 356.2291°
revolutions per day: 13.69517823
mean anomaly at epoch: 3.5822°
orbit number at epoch: 36917

The dashed part of the orbit path shows where the satellite is in the earth's shadow,  

DLR